Change the Weather History Date:

Tuesday, July 23, 2013

  Actual Average Record
Temperature  
Mean Temperature 73 °F -  
Max Temperature 82 °F 92 °F 108 °F (2014)
Min Temperature 63 °F 63 °F 55 °F (2000)
Cooling Degree Days 8    
Growing Degree Days 23 (Base 50)    
Moisture  
Dew Point 64 °F    
Average Humidity 72    
Maximum Humidity 100    
Minimum Humidity 51    
Precipitation  
Precipitation 0.00 in - - ()
Sea Level Pressure  
Sea Level Pressure 29.83 in    
Wind  
Wind Speed 12 mph (NW)    
Max Wind Speed 21 mph    
Max Gust Speed 30 mph    
Visibility 10 miles    
Events Rain , Thunderstorm    
Averages and records for this station are not official NWS values.
T = Trace of Precipitation, MM = Missing Value Source: NWS Daily Summary

Daily Weather History Graph

Daily Weather History Graph

Search for Another Location

Airport or City:

Trip Planner

Search our weather history database for the weather conditions in past years. The results will help you decide how hot, cold, wet, or windy it might be!

Date:

Astronomy

Jul. 23, 2013 Rise Set
Actual Time 5:44 AM CDT 8:18 PM CDT
Civil Twilight 5:13 AM CDT 8:50 PM CDT
Nautical Twilight 4:34 AM CDT 9:29 PM CDT
Astronomical Twilight 3:50 AM CDT 10:13 PM CDT
Moon 8:46 PM CDT (7/23) 6:53 AM CDT (7/23)
Length of Visible Light 15h 36m
Length of Day
14h 33m
Full, 99% of the Moon is Illuminated
Jul 23
Full
Jul 29
Last Quarter
Aug 6
New
Aug 14
First Quarter
Aug 20
Full

Hourly Weather History & Observations

Time (CDT) Temp. Heat Index Dew Point Humidity Pressure Visibility Wind Dir Wind Speed Gust Speed Precip Events Conditions
12:20 AM 75.2 °F - 64.4 °F 69% 29.89 in 10.0 mi NW 20.7 mph 29.9 mph N/A Thunderstorm Mostly Cloudy
12:56 AM 70.9 °F - 66.9 °F 87% 29.84 in 10.0 mi WSW 5.8 mph - 0.00 in Rain Light Rain
1:56 AM 68.9 °F - 66.9 °F 93% 29.78 in 10.0 mi Calm Calm - 0.00 in   Clear
2:56 AM 68.0 °F - 66.9 °F 96% 29.77 in 10.0 mi South 5.8 mph - N/A   Clear
3:56 AM 68.0 °F - 66.9 °F 96% 29.77 in 10.0 mi SSW 11.5 mph - N/A   Clear
4:56 AM 66.9 °F - 65.8 °F 96% 29.76 in 10.0 mi SSW 9.2 mph - N/A   Clear
5:56 AM 66.9 °F - 66.9 °F 100% 29.78 in 10.0 mi West 9.2 mph - N/A   Clear
6:56 AM 68.9 °F - 66.9 °F 93% 29.78 in 10.0 mi Variable 5.8 mph - N/A   Clear
7:56 AM 73.9 °F - 65.8 °F 76% 29.79 in 10.0 mi WNW 9.2 mph - N/A   Clear
8:56 AM 77.0 °F - 64.9 °F 66% 29.80 in 10.0 mi WNW 12.7 mph - N/A   Clear
9:56 AM 79.0 °F - 66.9 °F 66% 29.81 in 10.0 mi WNW 11.5 mph - N/A   Clear
10:56 AM 81.0 °F 83.3 °F 66.9 °F 62% 29.83 in 10.0 mi WNW 12.7 mph - N/A   Partly Cloudy
11:56 AM 81.9 °F 84.2 °F 66.9 °F 60% 29.83 in 10.0 mi WNW 12.7 mph - N/A   Scattered Clouds
12:56 PM 81.0 °F 83.3 °F 66.9 °F 62% 29.83 in 10.0 mi NNW 12.7 mph - N/A   Mostly Cloudy
1:56 PM 82.9 °F 84.6 °F 64.9 °F 54% 29.83 in 10.0 mi NNW 11.5 mph 18.4 mph N/A   Mostly Cloudy
2:56 PM 82.9 °F 84.0 °F 63.0 °F 51% 29.82 in 10.0 mi NNW 16.1 mph 23.0 mph N/A   Mostly Cloudy
3:56 PM 79.9 °F - 63.0 °F 56% 29.83 in 10.0 mi NNW 18.4 mph - N/A   Mostly Cloudy
4:56 PM 79.0 °F - 61.9 °F 56% 29.85 in 10.0 mi NNW 18.4 mph - N/A   Clear
5:56 PM 75.9 °F - 59.0 °F 56% 29.84 in 10.0 mi NNW 16.1 mph - N/A   Clear
6:56 PM 73.9 °F - 59.0 °F 59% 29.85 in 10.0 mi North 13.8 mph - N/A   Clear
7:56 PM 72.9 °F - 59.0 °F 62% 29.86 in 10.0 mi North 12.7 mph - N/A   Clear
8:56 PM 72.0 °F - 57.9 °F 61% 29.87 in 10.0 mi North 6.9 mph - N/A   Clear
9:56 PM 68.9 °F - 59.9 °F 73% 29.92 in 10.0 mi ENE 11.5 mph - N/A   Clear
10:56 PM 64.9 °F - 57.9 °F 78% 29.94 in 10.0 mi ENE 12.7 mph - N/A   Clear
11:56 PM 63.0 °F - 56.8 °F 80% 29.94 in 10.0 mi ENE 10.4 mph - N/A   Clear